Wind_Speed
45 46 45 44 44 44 45 45 44 44 45 45 45 46 46 46 46 46 46 46 46 47 46 47 47 47 47 47 47 47 47 47 47 47 47 47 47 47
47 46 47 46 46 47 47 46 46 47 47 47 47 47 46 46 47 48 48 48 48 48 47 47 48 48 48 48 48 48 49 49 49 49 49 49 49 49
48 48 48 48 47 48 48 48 48 48 48 48 48 48 48 48 49 49 50 49 49 49 49 49 48 48 49 49 49 50 50 50 50 50 50 51 51 51
49 49 49 48 49 49 49 49 49 49 48 48 48 49 49 50 50 50 50 50 49 49 49 49 49 50 51 51 51 51 51 51 51 51 51 52 52 52
49 49 50 50 50 49 49 50 50 49 49 49 49 49 50 50 50 50 50 51 51 51 50 51 51 52 52 52 52 52 53 53 52 52 52 52 52 53
49 49 50 50 50 51 51 51 51 51 51 51 51 50 50 50 50 50 51 52 53 54 53 53 53 53 53 54 53 53 53 53 52 52 52 52 53 53
50 50 50 51 51 51 52 52 52 52 52 52 52 51 51 52 52 53 53 53 54 54 53 53 54 54 54 54 54 54 54 53 53 53 53 53 53 53
51 52 52 52 52 53 52 52 53 53 53 53 53 52 52 53 54 54 54 54 54 54 55 55 55 55 55 55 55 54 54 54 54 55 54 54 54 55
51 52 52 52 53 52 52 53 53 53 53 52 52 53 53 54 55 55 55 55 55 55 55 55 55 55 55 55 55 55 55 55 55 56 55 55 55 56
53 54 53 53 52 52 51 51 52 52 53 53 53 53 54 54 55 55 55 55 55 55 56 55 56 56 56 55 55 55 55 55 56 56 56 56 56 56
52 53 53 52 51 51 51 50 50 51 52 52 53 53 53 54 55 55 55 55 55 55 55 55 56 56 56 56 56 56 56 56 56 56 56 56 56 56
52 53 53 53 52 51 51 51 51 51 51 51 51 52 52 53 53 54 54 55 55 55 55 55 55 56 55 56 56 56 56 56 57 56 56 56 55 55
50 51 51 51 52 52 52 52 52 51 51 52 52 52 52 52 52 53 54 55 55 55 55 55 55 55 55 55 55 55 56 56 56 57 56 55 55 55
49 48 49 49 50 51 51 51 51 51 51 52 52 52 52 52 52 53 53 54 55 55 54 54 54 54 54 53 53 53 54 55 55 55 55 55 54 54
49 49 49 49 50 51 51 52 52 52 52 52 52 52 52 52 53 53 53 53 53 53 53 53 52 52 52 52 52 52 52 53 53 53 53 54 54 53
48 49 49 50 50 50 51 52 52 52 52 52 52 52 52 52 52 52 52 52 52 52 52 52 52 52 52 51 51 51 52 52 52 52 52 52 53 52
47 48 49 50 51 51 51 51 51 51 51 50 50 51 51 51 52 52 52 52 52 52 52 52 52 51 51 51 51 51 52 52 52 52 52 52 51 51
47 47 48 48 49 49 49 49 50 50 50 50 50 50 50 51 51 51 51 51 51 51 51 51 51 51 51 51 51 51 51 51 51 50 50 50 49 50
46 46 46 47 47 47 47 47 48 48 48 48 49 48 48 49 49 50 50 50 51 51 51 51 51 51 51 51 51 51 50 50 49 49 49 49 49 49
44 45 45 45 46 46 46 46 46 47 47 47 47 47 47 47 48 48 49 49 50 50 51 51 51 51 51 51 50 50 50 49 48 48 48 48 48 48
43 44 44 44 45 45 45 46 46 46 46 46 46 47 47 47 47 48 48 49 49 50 50 50 50 51 51 50 50 49 49 49 49 48 48 48 48 47
42 43 43 43 43 44 44 44 45 45 45 46 46 47 47 47 48 48 48 49 49 49 49 49 49 49 49 49 49 49 49 49 48 48 47 47 46 46
40 40 41 42 42 43 43 43 44 44 45 45 46 47 47 47 48 48 49 49 49 49 49 49 49 49 49 49 48 48 47 47 47 46 46 45 45 44
Wind_Direction
259 259 259 261 263 264 265 266 266 265 264 264 265 266 266 267 267 268 268 269 270 270 271 271 271 271 271 271 271 270 271 270 270 271 272 273 274 274
260 261 261 262 263 264 265 266 265 265 265 266 266 267 266 267 267 268 269 269 269 270 270 271 271 272 272 272 271 270 271 270 270 270 272 273 274 273
260 261 262 262 263 265 265 265 266 265 266 266 266 267 267 267 268 268 268 269 269 270 270 270 271 272 272 272 272 271 271 270 270 271 272 273 273 273
260 261 262 262 263 264 265 265 266 266 267 267 267 268 268 268 268 268 268 268 269 269 270 270 271 271 272 272 272 272 271 270 269 271 272 273 274 274
260 261 262 263 264 264 265 265 266 266 267 267 268 268 268 268 268 268 268 269 269 269 270 270 271 271 272 273 273 272 271 270 269 271 272 273 274 274
260 262 263 263 264 264 265 266 266 266 267 267 268 268 268 267 268 268 268 269 269 269 270 270 271 272 273 273 273 272 271 270 270 271 272 272 273 274
260 261 262 263 264 265 265 265 266 266 266 266 267 267 267 268 268 268 269 270 270 270 270 271 271 272 273 273 273 272 271 270 270 271 272 273 273 274
260 261 262 263 264 265 265 265 266 265 265 266 266 267 268 268 268 268 269 270 270 270 271 271 271 272 273 272 272 272 271 270 270 271 273 273 274 274
259 261 261 262 264 264 264 264 265 265 265 265 266 267 268 268 269 269 270 270 270 270 270 271 272 273 273 273 273 273 271 270 270 272 273 273 274 274
259 260 261 263 263 264 265 264 264 265 266 267 268 269 269 270 271 271 271 271 271 271 271 271 271 272 273 273 273 273 271 270 271 272 272 273 274 275
260 260 262 263 264 265 265 265 265 266 267 268 269 270 270 270 270 271 271 271 271 271 271 272 272 273 273 273 273 272 271 270 271 272 273 274 274 275
261 262 262 263 263 264 264 265 266 266 267 268 269 270 270 270 270 271 271 271 272 272 272 272 272 272 273 272 272 272 271 271 271 272 274 274 274 275
262 263 263 263 263 264 265 266 266 267 267 268 269 269 270 270 271 272 272 272 272 272 272 272 272 273 273 272 272 271 271 271 272 273 273 274 274 274
262 262 263 263 263 264 266 267 267 268 269 269 270 270 271 271 272 271 271 272 272 272 272 271 272 272 273 273 272 271 272 272 273 273 273 274 274 274
262 261 261 262 262 263 265 266 267 268 269 269 270 270 270 271 271 271 271 271 271 271 271 271 272 272 272 273 273 272 272 273 273 274 274 274 274 274
262 261 261 262 263 264 265 266 267 268 269 270 269 270 270 270 271 271 270 270 270 270 270 271 271 271 272 273 273 273 273 274 274 274 275 274 274 274
263 263 263 263 264 264 265 266 267 268 269 269 269 270 270 271 270 270 270 269 269 270 270 271 271 272 272 273 274 274 275 274 274 274 274 274 274 275
265 265 265 265 265 265 265 266 267 268 269 269 269 270 270 270 270 270 270 269 269 270 270 270 271 272 273 273 273 274 275 274 274 274 274 274 274 275
266 266 266 266 266 266 266 267 267 268 269 270 270 271 271 270 270 270 269 269 269 269 269 270 271 272 273 273 273 273 274 273 273 273 273 273 273 274
267 267 267 267 267 267 267 267 268 269 270 270 270 271 271 271 271 270 270 270 269 269 270 270 271 272 272 272 273 273 273 272 272 273 273 273 273 274
268 268 268 268 268 268 268 269 270 270 270 270 271 271 272 272 272 271 271 271 270 270 270 271 271 272 272 272 272 272 272 272 272 273 273 273 273 274
269 269 269 268 268 268 269 270 270 271 271 271 271 272 272 272 272 272 271 271 271 271 271 271 271 271 272 272 272 272 272 272 273 273 273 274 274 274
270 269 269 269 269 270 271 271 271 271 271 272 272 272 272 272 272 272 272 271 271 271 271 271 271 271 271 271 272 272 272 272 272 272 274 275 275 275
Height
5685 5686 5687 5688 5689 5691 5692 5692 5693 5694 5695 5695 5694 5694 5694 5695 5695 5695 5694 5694 5694 5693 5692 5692 5691 5691 5690 5690 5689 5689 5689 5689 5689 5690 5690 5689 5689 5689
5673 5674 5676 5677 5678 5679 5679 5680 5680 5681 5682 5682 5682 5682 5682 5682 5682 5682 5682 5681 5681 5680 5680 5679 5679 5678 5678 5677 5677 5676 5676 5676 5676 5676 5676 5676 5676 5675
5661 5662 5663 5665 5666 5667 5667 5668 5668 5668 5669 5669 5669 5669 5669 5669 5669 5668 5668 5668 5667 5667 5666 5666 5665 5665 5665 5664 5663 5663 5663 5662 5662 5663 5662 5662 5662 5662
5648 5650 5651 5652 5653 5654 5655 5655 5655 5655 5656 5656 5656 5656 5656 5655 5655 5655 5655 5654 5654 5653 5653 5652 5652 5651 5651 5650 5650 5649 5649 5648 5649 5649 5649 5648 5648 5647
5635 5637 5638 5639 5640 5641 5641 5642 5642 5642 5642 5643 5643 5642 5642 5641 5641 5641 5640 5640 5640 5639 5639 5638 5637 5637 5636 5636 5635 5634 5634 5634 5634 5634 5634 5633 5633 5632
5622 5623 5625 5626 5627 5627 5628 5628 5628 5628 5628 5629 5629 5628 5628 5627 5627 5627 5626 5626 5625 5624 5624 5624 5623 5622 5622 5621 5621 5620 5619 5619 5619 5619 5619 5619 5618 5618
5608 5610 5611 5612 5612 5613 5614 5614 5614 5614 5614 5614 5614 5614 5614 5613 5613 5612 5612 5611 5610 5609 5609 5609 5608 5608 5606 5606 5605 5604 5604 5604 5604 5604 5604 5604 5603 5603
5595 5596 5597 5597 5598 5599 5599 5599 5600 5600 5600 5600 5600 5600 5600 5598 5597 5597 5596 5596 5597 5596 5594 5594 5593 5592 5591 5590 5589 5589 5589 5589 5589 5589 5589 5589 5588 5587
5580 5581 5582 5583 5583 5584 5584 5584 5584 5584 5585 5585 5585 5585 5584 5583 5582 5582 5581 5580 5580 5579 5579 5579 5577 5576 5576 5575 5574 5573 5573 5573 5574 5574 5573 5573 5572 5571
5566 5567 5568 5568 5568 5569 5569 5569 5569 5569 5569 5570 5570 5570 5568 5567 5566 5566 5565 5564 5564 5563 5563 5563 5561 5561 5560 5560 5558 5558 5558 5558 5558 5558 5558 5557 5556 5556
5551 5552 5552 5553 5554 5554 5555 5555 5555 5555 5554 5554 5554 5553 5552 5551 5550 5549 5549 5548 5549 5548 5547 5547 5546 5545 5544 5544 5543 5542 5542 5542 5542 5542 5541 5541 5540 5539
5536 5537 5538 5538 5538 5538 5539 5540 5540 5540 5540 5539 5538 5537 5536 5535 5535 5534 5533 5533 5532 5533 5532 5531 5530 5529 5529 5529 5527 5527 5526 5526 5526 5525 5525 5524 5523 5523
5522 5522 5523 5523 5523 5524 5524 5525 5525 5525 5524 5524 5523 5522 5521 5520 5520 5519 5518 5517 5517 5517 5516 5515 5514 5513 5513 5513 5512 5511 5510 5510 5509 5509 5508 5507 5507 5506
5507 5508 5508 5508 5508 5509 5509 5509 5510 5510 5509 5509 5508 5507 5507 5506 5505 5503 5502 5502 5501 5501 5500 5499 5499 5498 5497 5497 5497 5496 5495 5494 5494 5493 5492 5491 5490 5489
5492 5493 5493 5493 5494 5494 5495 5494 5495 5494 5494 5493 5493 5492 5491 5490 5489 5488 5487 5486 5486 5485 5484 5484 5483 5483 5482 5482 5482 5481 5480 5479 5478 5477 5476 5475 5475 5474
5477 5478 5478 5479 5479 5479 5479 5479 5479 5479 5478 5478 5477 5477 5476 5475 5474 5473 5472 5472 5471 5470 5469 5469 5468 5467 5467 5467 5466 5466 5464 5464 5463 5462 5461 5460 5459 5458
5463 5463 5464 5464 5464 5464 5464 5464 5464 5463 5463 5463 5462 5461 5460 5459 5459 5458 5457 5456 5456 5456 5455 5454 5453 5452 5452 5452 5451 5450 5449 5448 5447 5447 5446 5445 5444 5443
5448 5448 5449 5449 5449 5449 5449 5449 5448 5448 5448 5447 5447 5446 5445 5444 5443 5442 5442 5441 5441 5440 5440 5439 5438 5437 5437 5437 5436 5435 5434 5433 5432 5431 5430 5430 5430 5428
5434 5434 5434 5434 5434 5434 5434 5434 5434 5433 5432 5432 5431 5430 5429 5429 5428 5427 5426 5426 5425 5425 5425 5424 5423 5422 5422 5421 5421 5420 5419 5418 5417 5416 5415 5415 5415 5414
5421 5421 5421 5420 5420 5420 5420 5419 5419 5418 5418 5417 5416 5415 5415 5414 5413 5412 5411 5410 5410 5410 5409 5409 5408 5407 5406 5406 5406 5405 5403 5403 5402 5402 5401 5400 5400 5399
5407 5407 5407 5406 5406 5406 5405 5405 5405 5404 5403 5403 5402 5401 5400 5399 5398 5397 5396 5396 5395 5394 5394 5394 5393 5392 5391 5390 5390 5390 5389 5388 5388 5387 5386 5386 5385 5385
5394 5393 5393 5392 5392 5392 5392 5391 5390 5390 5389 5388 5387 5386 5385 5384 5383 5382 5382 5381 5380 5379 5379 5378 5377 5377 5376 5376 5375 5375 5374 5373 5372 5372 5371 5371 5370 5371
5381 5380 5379 5379 5379 5378 5378 5377 5376 5375 5374 5374 5373 5372 5371 5369 5368 5367 5366 5365 5365 5364 5363 5363 5362 5362 5361 5361 5361 5360 5360 5359 5358 5358 5357 5356 5356 5355